Regional Weather Roundup
Issued by NWS Cleveland, OH

Home | Current Version | Previous Version | Graphics & Text | Print | Product List | Glossary On
Versions: 1 2 3 4 5 6 7 8 9 10 11 12 13 14 15 16 17 18 19 20 21 22 23 24 25 26 27 28 29 30 31 32 33 34 35 36 37 38 39 40 41 42 43 44 45 46 47 48 49 50
870
ASUS41 KCLE 260000
RWRCLE
OHIO REGIONAL WEATHER ROUNDUP
NATIONAL WEATHER SERVICE WILMINGTON, OH
800 PM EDT SUN SEP 25 2016

NOTE: "FAIR" INDICATES FEW OR NO CLOUDS BELOW 12,000 FEET WITH NO
SIGNIFICANT WEATHER AND/OR OBSTRUCTIONS TO VISIBILITY.

OHZ001>008-015>018-024>027-034-035-043-044-260100-
   NORTHWEST OHIO

CITY           SKY/WX    TMP DP  RH WIND       PRES   REMARKS
DEFIANCE       FAIR      69  57  65 E5        30.01F
FINDLAY        FAIR      74  47  38 E7        30.02F
TOLEDO EXPRESS FAIR      63  54  72 E5        30.04S
TOLEDO EXEC    FAIR      65  55  70 E5        30.05F
LIMA           FAIR      71  62  73 E3        30.03R
$$

OHZ009>014-019>023-028>033-038-089-260100-
   NORTHEAST OHIO

CITY           SKY/WX    TMP DP  RH WIND       PRES   REMARKS
CLE-HOPKINS    FAIR      68  50  52 E6        30.09F
CLE-LAKEFRONT  FAIR      68  52  56 E6        30.07S
CUY CO. ARPT   CLEAR     64  55  72 E6        30.09F
LORAIN-ELYRIA  FAIR      62  50  64 CALM      30.08F
ASHTABULA      FAIR      57  54  89 E3        30.13S
AKRON-CANTON   FAIR      66  45  46 E8        30.10F
WOOSTER        NOT AVBL
MANSFIELD      FAIR      67  48  50 E6        30.08F
YOUNGSTOWN     MOCLDY    58  50  75 E6        30.11F
$$

OHZ042-051>053-060>062-070>072-077>081-260100-
  SOUTHWEST OHIO

CITY           SKY/WX    TMP DP  RH WIND       PRES   REMARKS
CINC-COVINGTON NOT AVBL
CINC-LUNKEN    FAIR      72  68  87 CALM      30.02S
HAMILTON       FAIR      71  66  84 CALM      30.03S
DAYTON         NOT AVBL
WRIGHT-PAT AFB NOT AVBL
DAYTON GENERAL FAIR      76  63  64 SE5       30.03S
WILMINGTON     FAIR      75  65  70 CALM      30.04F
$$

OHZ036-037-039>041-045>050-054>059-063>069-073>076-082>088-260100-
  CENTRAL AND SOUTHEAST OHIO

CITY           SKY/WX    TMP DP  RH WIND       PRES   REMARKS
COLUMBUS       FAIR      74  52  46 E7        30.05S
OSU AIRPORT    FAIR      72  54  53 E6        30.05S
BOLTON FIELD   NOT AVBL
RICKENBACK AFB NOT AVBL
NEWARK         FAIR      64  53  67 CALM      30.07S
MARION         FAIR      71  50  47 SE8       30.06S
LANCASTER      FAIR      69  52  54 E3        30.06F
ZANESVILLE     FAIR      71  47  42 CALM      30.08S
NEW PHILLY     FAIR      64  51  62 CALM      30.10R
$$




USA.gov is the U.S. government's official web portal to all federal, state and local government web resources and services.